STARLINK-32441, 61668

Orbit data source: Space-Track

STARLINK-32441, 61668 is a payload satellite owned by SpaceX/Seattle (US) in LEO that was launched on Sat, 26 Oct 2024 UTC via an FALCON 9 launch vehicle from the Air Force Eastern Test Range (AFETR). Payload-class satellites include a variety of spacecraft equipped with specific instruments for various scientific and technological missions. These include communications satellites like Starlink; space stations such as the ISS; scientific satellites like the Hubble; Earth observation satellites from companies like Planet Labs, Umbra, and HawkEye 360; GPS; miniature CubeSats for education and research; and military/defense satellites.

Loading next visibility...
Identifier
61668, 2024-193H
Orbit
LEO
Last TLE update
16 hours ago
Origin
Manufacturer
SpaceX/Seattle
Mission
Operational Commercial Communications
Bus & Motor
STARLINK V2M, Unknown motor
Mass
730 kg wet, ~700 kg dry
Launch date (UTC)
2024-10-26 (8 months ago)
Launch vehicle
FALCON 9
Launch site
Air Force Eastern Test Range (AFETR)
Object type
Payload
Rocket body
Debris
Shape & HBR
Box + 2 Pan, 29 m
Radar Cross Section
36.964 m², Large (>1 m²)

Expand to show TLE details & history

TLE from 16 hours ago
0 STARLINK-32441
1 61668U 24193H   25181.69589633 -.00000257  00000-0  34553-5 0  9992
2 61668  53.1585 181.6113 0000950  84.1919 275.9190 15.30193388 37940
Epoch: 2025-06-30T16:42Z
TLE epoch observation values (Epoch: 2025-06-30T16:42:05.442Z)
Latitude
-0.00004°
Longitude
12.08659°
Altitude
476.067 km
Speed
7.629 km/s
True Right ascension
12h 06m 26s
True Declination
0° 00' 00"
Sunlit
Object was in daylight at epoch
Visualization orbit readout
Latitude
53.28102°
Longitude
101.64097°
Altitude
481.154 km
Speed
7.632 km/s
Apparent Right ascension
12h 12m 34s
Apparent Declination
26° 32' 02"
Sunlit
Object is in daylight
Visualization observer readout
Local Sidereal Time
20:24:41
Azimuth
311.154° NW
Elevation
-5.014°
Doppler factor
1
Orbital elements
Apogee altitude
476.143 km
Perigee altitude
474.84 km
Semi-major axis
6,853.628 km
Eccentricity
0.0001
Inclination
53.1585°
RAAN
181.6113°
Arg. of periapsis
84.1919°
True anomaly
Unknown
Mean anomaly
275.919°
Eccentric anomaly
Unknown
Mean motion
3.82527 °/min
Orbital period
94.11 mins
BSTAR
0.0000034553
Loading maneuver chart data...
Loading SW <> Apogee altitude chart data...
Loading historical data...
Loading historical data...
Loading historical data...
Loading historical data...
Loading historical data...
Loading historical data...
Loading historical data...

STARLINK-32441 Visibility forecast

Observer location: undefined°, undefined°

Span
Click to sort rows by Start time (UTC) header in descending order
Start Az.
Max El. time (UTC)
Max El. Az.
Max El.
End time (UTC)
End Az.
6 mins2025-07-01 08:50:31.400Z324.528° NNW2025-07-01 08:53:31.400Z20.811° NNE30.068°2025-07-01 08:56:31.400Z95.701° ESE
5 mins2025-07-01 10:29:31.400Z277.507° WNW2025-07-01 10:31:31.400Z231.847° WSW24.899°2025-07-01 10:34:31.400Z171.188° S
5 mins2025-07-02 01:47:31.400Z183.167° SSW2025-07-02 01:49:31.400Z130.162° SE28.089°2025-07-02 01:52:31.400Z69.638° E
5 mins2025-07-02 03:25:31.400Z279.605° WNW2025-07-02 03:27:31.400Z335.24° NNW27.923°2025-07-02 03:30:31.400Z33.28° NE
5 mins2025-07-02 08:22:31.400Z342.755° N2025-07-02 08:24:31.400Z39.528° NE27.725°2025-07-02 08:27:31.400Z95.571° ESE
|